Regional Weather Roundup
Issued by NWS Cleveland, OH

Home | Current Version | Previous Version | Graphics & Text | Print | Product List | Glossary On
Versions: 1 2 3 4 5 6 7 8 9 10 11 12 13 14 15 16 17 18 19 20 21 22 23 24 25 26 27 28 29 30 31 32 33 34 35 36 37 38 39 40 41 42 43 44 45 46 47 48 49 50
259
ASUS41 KCLE 291910
RWRCLE
OHIO REGIONAL WEATHER ROUNDUP
NATIONAL WEATHER SERVICE WILMINGTON, OH
300 PM EDT SAT APR 29 2017

NOTE: "FAIR" INDICATES FEW OR NO CLOUDS BELOW 12,000 FEET WITH NO
SIGNIFICANT WEATHER AND/OR OBSTRUCTIONS TO VISIBILITY.

OHZ001>008-015>018-024>027-034-035-043-044-292000-
   NORTHWEST OHIO

CITY           SKY/WX    TMP DP  RH WIND       PRES   REMARKS
DEFIANCE       CLOUDY    46  44  93 E13       30.17R
FINDLAY        LGT RAIN  49  44  83 NE12G22   30.15S
TOLEDO EXPRESS LGT RAIN  44  43  96 NE14G21   30.19S
TOLEDO EXEC    CLOUDY    46  43  89 NE8G18    30.21R
LIMA           CLOUDY    49  48  97 NE15G21   30.12R
$$

OHZ009>014-019>023-028>033-038-089-292000-
   NORTHEAST OHIO

CITY           SKY/WX    TMP DP  RH WIND       PRES   REMARKS
CLE-HOPKINS    LGT RAIN  48  42  80 NE13G20   30.20R
CLE-LAKEFRONT  LGT RAIN  47  42  83 N18       30.17S
CUY CO. ARPT   CLOUDY    46  45  93 NE10      30.17S
LORAIN-ELYRIA  LGT RAIN  46  41  82 NE9       30.19R
ASHTABULA      CLOUDY    48  45  89 N6        30.20R
AKRON-CANTON   FOG       55  52  89 N9        30.13F VSB 1
WOOSTER        CLOUDY    53  51  93 N9        30.15F
MANSFIELD      CLOUDY    50  49  96 N9        30.15R
YOUNGSTOWN     CLOUDY    54  52  93 NW12      30.17R
$$

OHZ042-051>053-060>062-070>072-077>081-292000-
  SOUTHWEST OHIO

CITY           SKY/WX    TMP DP  RH WIND       PRES   REMARKS
CINC-COVINGTON PTSUNNY   76  63  64 SE10      30.06S
CINC-LUNKEN    FAIR      76  67  73 S7        30.05F
HAMILTON       FAIR      75  65  70 VRB6      30.06F
DAYTON         PTSUNNY   71  64  78 SE9       30.07F
WRIGHT-PAT AFB PTSUNNY   74  66  76 SE7       30.06F
DAYTON GENERAL FAIR      74  64  71 SE7       30.05F
WILMINGTON     FAIR      73  65  75 SE8       30.07F
$$

OHZ036-037-039>041-045>050-054>059-063>069-073>076-082>088-292000-
  CENTRAL AND SOUTHEAST OHIO

CITY           SKY/WX    TMP DP  RH WIND       PRES   REMARKS
COLUMBUS       CLOUDY    69  64  84 SW9       30.09F
OSU AIRPORT    FAIR      71  64  78 SW7       30.09F
BOLTON FIELD   SUNNY     70  66  88 S8        30.10S
RICKENBACK AFB FAIR      69  65  88 S7        30.08F
NEWARK         FAIR      72  65  78 S8        30.09F
MARION         CLOUDY    52  49  89 N15       30.16R
LANCASTER      FAIR      74  64  71 CALM      30.10F
ZANESVILLE     FAIR      69  63  81 S5        30.12S
NEW PHILLY     CLOUDY    68  64  87 VRB7      30.12S
$$




USA.gov is the U.S. government's official web portal to all federal, state and local government web resources and services.